Year,Month,Day,Hour,Minute,Value (Times are PST for temperature in C)
2023,05,15,00,00,19.90
2023,05,15,00,01,19.90
2023,05,15,00,02,19.90
2023,05,15,00,03,20.10
2023,05,15,00,04,20.10
2023,05,15,00,05,20.20
2023,05,15,00,06,20.20
2023,05,15,00,07,20.30
2023,05,15,00,08,20.40
2023,05,15,00,09,20.50
2023,05,15,00,10,20.50
2023,05,15,00,11,20.60
2023,05,15,00,12,20.70
2023,05,15,00,13,20.80
2023,05,15,00,14,20.90
2023,05,15,00,15,20.90
2023,05,15,00,16,20.90
2023,05,15,00,17,20.90
2023,05,15,00,18,20.90
2023,05,15,00,19,20.90
2023,05,15,00,20,20.90
2023,05,15,00,21,20.90
2023,05,15,00,22,20.90
2023,05,15,00,23,20.90
2023,05,15,00,24,20.90
2023,05,15,00,25,20.90
2023,05,15,00,26,20.90
2023,05,15,00,27,20.90
2023,05,15,00,28,20.90
2023,05,15,00,29,20.90
2023,05,15,00,30,20.90
2023,05,15,00,31,20.90
2023,05,15,00,32,20.90
2023,05,15,00,33,20.90
2023,05,15,00,34,20.90
2023,05,15,00,35,20.90
2023,05,15,00,36,21.00
2023,05,15,00,37,21.00
2023,05,15,00,38,21.00
2023,05,15,00,39,21.00
2023,05,15,00,40,20.90
2023,05,15,00,41,20.90
2023,05,15,00,42,20.80
2023,05,15,00,43,20.70
2023,05,15,00,44,20.70
2023,05,15,00,45,20.60
2023,05,15,00,46,20.60
2023,05,15,00,47,20.60
2023,05,15,00,48,20.50
2023,05,15,00,49,20.50
2023,05,15,00,50,20.50
2023,05,15,00,51,20.50
2023,05,15,00,52,20.50
2023,05,15,00,53,20.50
2023,05,15,00,54,20.50
2023,05,15,00,55,20.50
2023,05,15,00,56,20.50
2023,05,15,00,57,20.50
2023,05,15,00,58,20.50
2023,05,15,00,59,20.50
2023,05,15,01,00,20.50
2023,05,15,01,01,20.50
2023,05,15,01,02,20.40
2023,05,15,01,03,20.40
2023,05,15,01,04,20.40
2023,05,15,01,05,20.30
2023,05,15,01,06,20.20
2023,05,15,01,07,20.00
2023,05,15,01,08,19.70
2023,05,15,01,09,19.40
2023,05,15,01,10,19.20
2023,05,15,01,11,19.10
2023,05,15,01,12,18.90
2023,05,15,01,13,18.90
2023,05,15,01,14,18.90
2023,05,15,01,15,18.90
2023,05,15,01,16,18.90
2023,05,15,01,17,19.00
2023,05,15,01,18,19.20
2023,05,15,01,19,19.30
2023,05,15,01,20,19.40
2023,05,15,01,21,19.50
2023,05,15,01,22,19.60
2023,05,15,01,23,19.60
2023,05,15,01,24,19.60
2023,05,15,01,25,19.60
2023,05,15,01,26,19.50
2023,05,15,01,27,19.40
2023,05,15,01,28,19.40
2023,05,15,01,29,19.30
2023,05,15,01,30,19.10
2023,05,15,01,31,19.00
2023,05,15,01,32,18.90
2023,05,15,01,33,18.70
2023,05,15,01,34,18.50
2023,05,15,01,35,18.40
2023,05,15,01,36,18.30
2023,05,15,01,37,18.20
2023,05,15,01,38,18.10
2023,05,15,01,39,17.90
2023,05,15,01,40,17.90
2023,05,15,01,41,17.80
2023,05,15,01,42,17.80
2023,05,15,01,43,17.70
2023,05,15,01,44,17.70
2023,05,15,01,45,17.60
2023,05,15,01,46,17.60
2023,05,15,01,47,17.70
2023,05,15,01,48,17.70
2023,05,15,01,49,17.80
2023,05,15,01,50,17.80
2023,05,15,01,51,17.90
2023,05,15,01,52,17.90
2023,05,15,01,53,18.10
2023,05,15,01,54,18.10
2023,05,15,01,55,18.20
2023,05,15,01,56,18.20
2023,05,15,01,57,18.20
2023,05,15,01,58,18.30
2023,05,15,01,59,18.40
2023,05,15,02,00,18.50
2023,05,15,02,01,18.50
2023,05,15,02,02,18.60
2023,05,15,02,03,18.60
2023,05,15,02,04,18.60
2023,05,15,02,05,18.60
2023,05,15,02,06,18.60
2023,05,15,02,07,18.60
2023,05,15,02,08,18.60
2023,05,15,02,09,18.60
2023,05,15,02,10,18.60
2023,05,15,02,11,18.60
2023,05,15,02,12,18.50
2023,05,15,02,13,18.50
2023,05,15,02,14,18.40
2023,05,15,02,15,18.40
2023,05,15,02,16,18.40
2023,05,15,02,17,18.30
2023,05,15,02,18,18.30
2023,05,15,02,19,18.20
2023,05,15,02,20,18.20
2023,05,15,02,21,18.20
2023,05,15,02,22,18.10
2023,05,15,02,23,18.10
2023,05,15,02,24,17.90
2023,05,15,02,25,17.90
2023,05,15,02,26,17.80
2023,05,15,02,27,17.70
2023,05,15,02,28,17.60
2023,05,15,02,29,17.60
2023,05,15,02,30,17.50
2023,05,15,02,31,17.40
2023,05,15,02,32,17.40
2023,05,15,02,33,17.30
2023,05,15,02,34,17.30
2023,05,15,02,35,17.30
2023,05,15,02,36,17.20
2023,05,15,02,37,17.20
2023,05,15,02,38,17.20
2023,05,15,02,39,17.10
2023,05,15,02,40,17.10
2023,05,15,02,41,17.10
2023,05,15,02,42,17.10
2023,05,15,02,43,17.10
2023,05,15,02,44,17.20
2023,05,15,02,45,17.30
2023,05,15,02,46,17.40
2023,05,15,02,47,17.60
2023,05,15,02,48,17.90
2023,05,15,02,49,18.20
2023,05,15,02,50,18.50
2023,05,15,02,51,18.70
2023,05,15,02,52,19.00
2023,05,15,02,53,19.20
2023,05,15,02,54,19.40
2023,05,15,02,55,19.50
2023,05,15,02,56,19.70
2023,05,15,02,57,19.80
2023,05,15,02,58,19.90
2023,05,15,02,59,19.90
2023,05,15,03,00,19.90
2023,05,15,03,01,19.90
2023,05,15,03,02,19.90
2023,05,15,03,03,19.90
2023,05,15,03,04,19.90
2023,05,15,03,05,19.90
2023,05,15,03,06,19.90
2023,05,15,03,07,19.90
2023,05,15,03,08,19.90
2023,05,15,03,09,19.90
2023,05,15,03,10,19.90
2023,05,15,03,11,19.90
2023,05,15,03,12,19.90
2023,05,15,03,13,19.90
2023,05,15,03,14,19.80
2023,05,15,03,15,19.80
2023,05,15,03,16,19.70
2023,05,15,03,17,19.70
2023,05,15,03,18,19.60
2023,05,15,03,19,19.60
2023,05,15,03,20,19.60
2023,05,15,03,21,19.50
2023,05,15,03,22,19.50
2023,05,15,03,23,19.40
2023,05,15,03,24,19.30
2023,05,15,03,25,19.20
2023,05,15,03,26,19.10
2023,05,15,03,27,19.00
2023,05,15,03,28,18.80
2023,05,15,03,29,18.70
2023,05,15,03,30,18.50
2023,05,15,03,31,18.40
2023,05,15,03,32,18.20
2023,05,15,03,33,18.10
2023,05,15,03,34,18.00
2023,05,15,03,35,17.90
2023,05,15,03,36,17.70
2023,05,15,03,37,17.60
2023,05,15,03,38,17.40
2023,05,15,03,39,17.30
2023,05,15,03,40,17.10
2023,05,15,03,41,17.00
2023,05,15,03,42,16.90
2023,05,15,03,43,16.80
2023,05,15,03,44,16.70
2023,05,15,03,45,16.70
2023,05,15,03,46,16.70
2023,05,15,03,47,16.60
2023,05,15,03,48,16.50
2023,05,15,03,49,16.40
2023,05,15,03,50,16.40
2023,05,15,03,51,16.40
2023,05,15,03,52,16.40
2023,05,15,03,53,16.40
2023,05,15,03,54,16.30
2023,05,15,03,55,16.30
2023,05,15,03,56,16.30
2023,05,15,03,57,16.30
2023,05,15,03,58,16.30
2023,05,15,03,59,16.30
2023,05,15,04,00,16.20
2023,05,15,04,01,16.20
2023,05,15,04,02,16.20
2023,05,15,04,03,16.20
2023,05,15,04,04,16.30
2023,05,15,04,05,16.30
2023,05,15,04,06,16.40
2023,05,15,04,07,16.40
2023,05,15,04,08,16.50
2023,05,15,04,09,16.60
2023,05,15,04,10,16.70
2023,05,15,04,11,16.80
2023,05,15,04,12,16.80
2023,05,15,04,13,16.90
2023,05,15,04,14,17.00
2023,05,15,04,15,17.00
2023,05,15,04,16,17.10
2023,05,15,04,17,17.20
2023,05,15,04,18,17.30
2023,05,15,04,19,17.30
2023,05,15,04,20,17.30
2023,05,15,04,21,17.30
2023,05,15,04,22,17.40
2023,05,15,04,23,17.50
2023,05,15,04,24,17.60
2023,05,15,04,25,17.70
2023,05,15,04,26,17.80
2023,05,15,04,27,17.90
2023,05,15,04,28,18.10
2023,05,15,04,29,18.20
2023,05,15,04,30,18.20
2023,05,15,04,31,18.30
2023,05,15,04,32,18.40
2023,05,15,04,33,18.40
2023,05,15,04,34,18.40
2023,05,15,04,35,18.30
2023,05,15,04,36,18.30
2023,05,15,04,37,18.20
2023,05,15,04,38,18.20
2023,05,15,04,39,18.10
2023,05,15,04,40,18.00
2023,05,15,04,41,17.90
2023,05,15,04,42,17.90
2023,05,15,04,43,17.80
2023,05,15,04,44,17.70
2023,05,15,04,45,17.70
2023,05,15,04,46,17.60
2023,05,15,04,47,17.60
2023,05,15,04,48,17.50
2023,05,15,04,49,17.50
2023,05,15,04,50,17.50
2023,05,15,04,51,17.50
2023,05,15,04,52,17.50
2023,05,15,04,53,17.50
2023,05,15,04,54,17.50
2023,05,15,04,55,17.40
2023,05,15,04,56,17.40
2023,05,15,04,57,17.40
2023,05,15,04,58,17.50
2023,05,15,04,59,17.50
2023,05,15,05,00,17.50
2023,05,15,05,01,17.60
2023,05,15,05,02,17.70
2023,05,15,05,03,17.70
2023,05,15,05,04,17.70
2023,05,15,05,05,17.80
2023,05,15,05,06,17.80
2023,05,15,05,07,17.80
2023,05,15,05,08,17.90
2023,05,15,05,09,17.90
2023,05,15,05,10,17.90
2023,05,15,05,11,17.90
2023,05,15,05,12,17.90
2023,05,15,05,13,17.90
2023,05,15,05,14,17.90
2023,05,15,05,15,17.90
2023,05,15,05,16,18.10
2023,05,15,05,17,18.10
2023,05,15,05,18,18.20
2023,05,15,05,19,18.20
2023,05,15,05,20,18.30
2023,05,15,05,21,18.30
2023,05,15,05,22,18.40
2023,05,15,05,23,18.40
2023,05,15,05,24,18.50
2023,05,15,05,25,18.50
2023,05,15,05,26,18.60
2023,05,15,05,27,18.60
2023,05,15,05,28,18.70
2023,05,15,05,29,18.70
2023,05,15,05,30,18.70
2023,05,15,05,31,18.70
2023,05,15,05,32,18.70
2023,05,15,05,33,18.80
2023,05,15,05,34,18.80
2023,05,15,05,35,18.90
2023,05,15,05,36,18.90
2023,05,15,05,37,19.00
2023,05,15,05,38,19.10
2023,05,15,05,39,19.10
2023,05,15,05,40,19.10
2023,05,15,05,41,19.20
2023,05,15,05,42,19.30
2023,05,15,05,43,19.30
2023,05,15,05,44,19.30
2023,05,15,05,45,19.30
2023,05,15,05,46,19.30
2023,05,15,05,47,19.30
2023,05,15,05,48,19.20
2023,05,15,05,49,19.20
2023,05,15,05,50,19.20
2023,05,15,05,51,19.10
2023,05,15,05,52,19.10
2023,05,15,05,53,19.10
2023,05,15,05,54,19.00
2023,05,15,05,55,18.90
2023,05,15,05,56,18.90
2023,05,15,05,57,18.80
2023,05,15,05,58,18.70
2023,05,15,05,59,18.60
2023,05,15,06,00,18.50
2023,05,15,06,01,18.30
2023,05,15,06,02,18.20
2023,05,15,06,03,18.00
2023,05,15,06,04,17.80
2023,05,15,06,05,17.70
2023,05,15,06,06,17.60
2023,05,15,06,07,17.50
2023,05,15,06,08,17.40
2023,05,15,06,09,17.30
2023,05,15,06,10,17.30
2023,05,15,06,11,17.20
2023,05,15,06,12,17.20
2023,05,15,06,13,17.20
2023,05,15,06,14,17.20
2023,05,15,06,15,17.20
2023,05,15,06,16,17.20
2023,05,15,06,17,17.30
2023,05,15,06,18,17.30
2023,05,15,06,19,17.30
2023,05,15,06,20,17.30
2023,05,15,06,21,17.30
2023,05,15,06,22,17.30
2023,05,15,06,23,17.40
2023,05,15,06,24,17.40
2023,05,15,06,25,17.40
2023,05,15,06,26,17.50
2023,05,15,06,27,17.50
2023,05,15,06,28,17.50
2023,05,15,06,29,17.60
2023,05,15,06,30,17.60
2023,05,15,06,31,17.60
2023,05,15,06,32,17.70
2023,05,15,06,33,17.70
2023,05,15,06,34,17.80
2023,05,15,06,35,17.80
2023,05,15,06,36,17.90
2023,05,15,06,37,17.90
2023,05,15,06,38,18.00
2023,05,15,06,39,18.10
2023,05,15,06,40,18.10
2023,05,15,06,41,18.00
2023,05,15,06,42,17.90
2023,05,15,06,43,17.90
2023,05,15,06,44,17.90
2023,05,15,06,45,17.90
2023,05,15,06,46,17.80
2023,05,15,06,47,17.80
2023,05,15,06,48,17.80
2023,05,15,06,49,17.80
2023,05,15,06,50,17.80
2023,05,15,06,51,17.80
2023,05,15,06,52,17.80
2023,05,15,06,53,17.90
2023,05,15,06,54,17.90
2023,05,15,06,55,17.90
2023,05,15,06,56,17.90
2023,05,15,06,57,18.00
2023,05,15,06,58,18.10
2023,05,15,06,59,18.10
2023,05,15,07,00,18.10
2023,05,15,07,01,18.10
2023,05,15,07,02,18.20
2023,05,15,07,03,18.20
2023,05,15,07,04,18.20
2023,05,15,07,05,18.20
2023,05,15,07,06,18.20
2023,05,15,07,07,18.20
2023,05,15,07,08,18.30
2023,05,15,07,09,18.40
2023,05,15,07,10,18.40
2023,05,15,07,11,18.50
2023,05,15,07,12,18.60
2023,05,15,07,13,18.60
2023,05,15,07,14,18.60
2023,05,15,07,15,18.60
2023,05,15,07,16,18.50
2023,05,15,07,17,18.50
2023,05,15,07,18,18.40
2023,05,15,07,19,18.30
2023,05,15,07,20,18.20
2023,05,15,07,21,18.10
2023,05,15,07,22,18.00
2023,05,15,07,23,17.90
2023,05,15,07,24,17.80
2023,05,15,07,25,17.70
2023,05,15,07,26,17.70
2023,05,15,07,27,17.70
2023,05,15,07,28,17.60
2023,05,15,07,29,17.60
2023,05,15,07,30,17.60
2023,05,15,07,31,17.70
2023,05,15,07,32,17.70
2023,05,15,07,33,17.70
2023,05,15,07,34,17.80
2023,05,15,07,35,17.80
2023,05,15,07,36,17.80
2023,05,15,07,37,17.90
2023,05,15,07,38,17.90
2023,05,15,07,39,17.90
2023,05,15,07,40,17.90
2023,05,15,07,41,17.90
2023,05,15,07,42,18.10
2023,05,15,07,43,18.10
2023,05,15,07,44,18.20
2023,05,15,07,45,18.20
2023,05,15,07,46,18.30
2023,05,15,07,47,18.30
2023,05,15,07,48,18.40
2023,05,15,07,49,18.50
2023,05,15,07,50,18.60
2023,05,15,07,51,18.70
2023,05,15,07,52,18.80
2023,05,15,07,53,18.80
2023,05,15,07,54,18.90
2023,05,15,07,55,18.90
2023,05,15,07,56,18.90
2023,05,15,07,57,18.90
2023,05,15,07,58,18.80
2023,05,15,07,59,18.80
2023,05,15,08,00,18.80
2023,05,15,08,01,18.80
2023,05,15,08,02,18.80
2023,05,15,08,03,18.80
2023,05,15,08,04,18.80
2023,05,15,08,05,18.80
2023,05,15,08,06,18.90
2023,05,15,08,07,18.90
2023,05,15,08,08,18.90
2023,05,15,08,09,18.90
2023,05,15,08,10,18.80
2023,05,15,08,11,18.80
2023,05,15,08,12,18.90
2023,05,15,08,13,18.90
2023,05,15,08,14,18.90
2023,05,15,08,15,18.90
2023,05,15,08,16,19.00
2023,05,15,08,17,19.10
2023,05,15,08,18,19.10
2023,05,15,08,19,19.20
2023,05,15,08,20,19.30
2023,05,15,08,21,19.30
2023,05,15,08,22,19.30
2023,05,15,08,23,19.40
2023,05,15,08,24,19.40
2023,05,15,08,25,19.50
2023,05,15,08,26,19.60
2023,05,15,08,27,19.70
2023,05,15,08,28,19.80
2023,05,15,08,29,19.80
2023,05,15,08,30,19.90
2023,05,15,08,31,19.90
2023,05,15,08,32,19.90
2023,05,15,08,33,19.90
2023,05,15,08,34,19.90
2023,05,15,08,35,19.90
2023,05,15,08,36,19.80
2023,05,15,08,37,19.80
2023,05,15,08,38,19.80
2023,05,15,08,39,19.70
2023,05,15,08,40,19.70
2023,05,15,08,41,19.70
2023,05,15,08,42,19.70
2023,05,15,08,43,19.80
2023,05,15,08,44,19.80
2023,05,15,08,45,19.80
2023,05,15,08,46,19.80
2023,05,15,08,47,19.70
2023,05,15,08,48,19.70
2023,05,15,08,49,19.60
2023,05,15,08,50,19.60
2023,05,15,08,51,19.60
2023,05,15,08,52,19.70
2023,05,15,08,53,19.70
2023,05,15,08,54,19.70
2023,05,15,08,55,19.70
2023,05,15,08,56,19.70
2023,05,15,08,57,19.80
2023,05,15,08,58,19.80
2023,05,15,08,59,19.90
2023,05,15,09,00,19.90
2023,05,15,09,01,19.90
2023,05,15,09,02,20.00
2023,05,15,09,03,20.10
2023,05,15,09,04,20.10
2023,05,15,09,05,20.10
2023,05,15,09,06,20.10
2023,05,15,09,07,20.00
2023,05,15,09,08,19.90
2023,05,15,09,09,19.90
2023,05,15,09,10,19.90
2023,05,15,09,11,19.90
2023,05,15,09,12,20.00
2023,05,15,09,13,20.10
2023,05,15,09,14,20.20
2023,05,15,09,15,20.20
2023,05,15,09,16,20.30
2023,05,15,09,17,20.30
2023,05,15,09,18,20.30
2023,05,15,09,19,20.40
2023,05,15,09,20,20.40
2023,05,15,09,21,20.50
2023,05,15,09,22,20.50
2023,05,15,09,23,20.60
2023,05,15,09,24,20.60
2023,05,15,09,25,20.70
2023,05,15,09,26,20.70
2023,05,15,09,27,20.70
2023,05,15,09,28,20.70
2023,05,15,09,29,20.80
2023,05,15,09,30,20.90
2023,05,15,09,31,21.00
2023,05,15,09,32,21.00
2023,05,15,09,33,21.10
2023,05,15,09,34,21.20
2023,05,15,09,35,21.20
2023,05,15,09,36,21.30
2023,05,15,09,37,21.30
2023,05,15,09,38,21.40
2023,05,15,09,39,21.50
2023,05,15,09,40,21.60
2023,05,15,09,41,21.60
2023,05,15,09,42,21.70
2023,05,15,09,43,21.80
2023,05,15,09,44,21.80
2023,05,15,09,45,21.70
2023,05,15,09,46,21.60
2023,05,15,09,47,21.60
2023,05,15,09,48,21.60
2023,05,15,09,49,21.60
2023,05,15,09,50,21.60
2023,05,15,09,51,21.70
2023,05,15,09,52,21.70
2023,05,15,09,53,21.70
2023,05,15,09,54,21.70
2023,05,15,09,55,21.70
2023,05,15,09,56,21.60
2023,05,15,09,57,21.70
2023,05,15,09,58,21.70
2023,05,15,09,59,21.80
2023,05,15,10,00,21.80
2023,05,15,10,01,21.80
2023,05,15,10,02,21.70
2023,05,15,10,03,21.70
2023,05,15,10,04,21.70
2023,05,15,10,05,21.70
2023,05,15,10,06,21.60
2023,05,15,10,07,21.60
2023,05,15,10,08,21.60
2023,05,15,10,09,21.60
2023,05,15,10,10,21.60
2023,05,15,10,11,21.60
2023,05,15,10,12,21.60
2023,05,15,10,13,21.60
2023,05,15,10,14,21.60
2023,05,15,10,15,21.70
2023,05,15,10,16,21.70
2023,05,15,10,17,21.70
2023,05,15,10,18,21.60
2023,05,15,10,19,21.60
2023,05,15,10,20,21.60
2023,05,15,10,21,21.60
2023,05,15,10,22,21.60
2023,05,15,10,23,21.60
2023,05,15,10,24,21.70
2023,05,15,10,25,21.80
2023,05,15,10,26,21.90
2023,05,15,10,27,22.00
2023,05,15,10,28,22.10
2023,05,15,10,29,22.20
2023,05,15,10,30,22.30
2023,05,15,10,31,22.40
2023,05,15,10,32,22.40
2023,05,15,10,33,22.40
2023,05,15,10,34,22.50
2023,05,15,10,35,22.50
2023,05,15,10,36,22.60
2023,05,15,10,37,22.80
2023,05,15,10,38,22.80
2023,05,15,10,39,22.90
2023,05,15,10,40,23.00
2023,05,15,10,41,23.10
2023,05,15,10,42,23.20
2023,05,15,10,43,23.20
2023,05,15,10,44,23.10
2023,05,15,10,45,23.10
2023,05,15,10,46,23.10
2023,05,15,10,47,23.10
2023,05,15,10,48,23.10
2023,05,15,10,49,23.10
2023,05,15,10,50,23.10
2023,05,15,10,51,23.00
2023,05,15,10,52,22.90
2023,05,15,10,53,22.80
2023,05,15,10,54,22.70
2023,05,15,10,55,22.70
2023,05,15,10,56,22.60
2023,05,15,10,57,22.60
2023,05,15,10,58,22.50
2023,05,15,10,59,22.50
2023,05,15,11,00,22.40
2023,05,15,11,01,22.40
2023,05,15,11,02,22.30
2023,05,15,11,03,22.20
2023,05,15,11,04,22.20
2023,05,15,11,05,22.10
2023,05,15,11,06,22.20
2023,05,15,11,07,22.20
2023,05,15,11,08,22.30
2023,05,15,11,09,22.40
2023,05,15,11,10,22.40
2023,05,15,11,11,22.50
2023,05,15,11,12,22.50
2023,05,15,11,13,22.60
2023,05,15,11,14,22.50
2023,05,15,11,15,22.50
2023,05,15,11,16,22.60
2023,05,15,11,17,22.60
2023,05,15,11,18,22.70
2023,05,15,11,19,22.70
2023,05,15,11,20,22.70
2023,05,15,11,21,22.80
2023,05,15,11,22,22.80
2023,05,15,11,23,22.80
2023,05,15,11,24,22.90
2023,05,15,11,25,23.00
2023,05,15,11,26,23.20
2023,05,15,11,27,23.30
2023,05,15,11,28,23.40
2023,05,15,11,29,23.60
2023,05,15,11,30,23.60
2023,05,15,11,31,23.50
2023,05,15,11,32,23.30
2023,05,15,11,33,23.20
2023,05,15,11,34,23.10
2023,05,15,11,35,23.10
2023,05,15,11,36,23.20
2023,05,15,11,37,23.20
2023,05,15,11,38,23.30
2023,05,15,11,39,23.30
2023,05,15,11,40,23.30
2023,05,15,11,41,23.30
2023,05,15,11,42,23.50
2023,05,15,11,43,23.60
2023,05,15,11,44,23.70
2023,05,15,11,45,23.80
2023,05,15,11,46,23.90
2023,05,15,11,47,24.10
2023,05,15,11,48,24.10
2023,05,15,11,49,24.10
2023,05,15,11,50,24.10
2023,05,15,11,51,24.20
2023,05,15,11,52,24.30
2023,05,15,11,53,24.40
2023,05,15,11,54,24.60
2023,05,15,11,55,24.60
2023,05,15,11,56,24.50
2023,05,15,11,57,24.50
2023,05,15,11,58,24.60
2023,05,15,11,59,24.60
2023,05,15,12,00,24.60
2023,05,15,12,01,24.70
2023,05,15,12,02,24.60
2023,05,15,12,03,24.60
2023,05,15,12,04,24.60
2023,05,15,12,05,24.50
2023,05,15,12,06,24.40
2023,05,15,12,07,24.20
2023,05,15,12,08,24.00
2023,05,15,12,09,23.90
2023,05,15,12,10,23.80
2023,05,15,12,11,23.70
2023,05,15,12,12,23.70
2023,05,15,12,13,23.70
2023,05,15,12,14,23.70
2023,05,15,12,15,23.70
2023,05,15,12,16,23.70
2023,05,15,12,17,23.70
2023,05,15,12,18,23.80
2023,05,15,12,19,23.90
2023,05,15,12,20,24.10
2023,05,15,12,21,24.20
2023,05,15,12,22,24.30
2023,05,15,12,23,24.40
2023,05,15,12,24,24.60
2023,05,15,12,25,24.70
2023,05,15,12,26,24.70
2023,05,15,12,27,24.80
2023,05,15,12,28,24.80
2023,05,15,12,29,24.90
2023,05,15,12,30,25.00
2023,05,15,12,31,25.10
2023,05,15,12,32,25.10
2023,05,15,12,33,25.10
2023,05,15,12,34,25.20
2023,05,15,12,35,25.30
2023,05,15,12,36,25.30
2023,05,15,12,37,25.30
2023,05,15,12,38,25.30
2023,05,15,12,39,25.30
2023,05,15,12,40,25.40
2023,05,15,12,41,25.40
2023,05,15,12,42,25.50
2023,05,15,12,43,25.60
2023,05,15,12,44,25.50
2023,05,15,12,45,25.50
2023,05,15,12,46,25.50
2023,05,15,12,47,25.50
2023,05,15,12,48,25.60
2023,05,15,12,49,25.70
2023,05,15,12,50,25.80
2023,05,15,12,51,25.90
2023,05,15,12,52,25.90
2023,05,15,12,53,26.00
2023,05,15,12,54,26.10
2023,05,15,12,55,26.10
2023,05,15,12,56,26.10
2023,05,15,12,57,26.10
2023,05,15,12,58,26.20
2023,05,15,12,59,26.20
2023,05,15,13,00,26.20
2023,05,15,13,01,26.20
2023,05,15,13,02,26.10
2023,05,15,13,03,26.00
2023,05,15,13,04,25.90
2023,05,15,13,05,25.90
2023,05,15,13,06,25.90
2023,05,15,13,07,25.80
2023,05,15,13,08,25.90
2023,05,15,13,09,26.00
2023,05,15,13,10,26.10
2023,05,15,13,11,26.30
2023,05,15,13,12,26.30
2023,05,15,13,13,26.40
2023,05,15,13,14,26.50
2023,05,15,13,15,26.60
2023,05,15,13,16,26.60
2023,05,15,13,17,26.60
2023,05,15,13,18,26.70
2023,05,15,13,19,26.70
2023,05,15,13,20,26.70
2023,05,15,13,21,26.70
2023,05,15,13,22,26.60
2023,05,15,13,23,26.70
2023,05,15,13,24,26.80
2023,05,15,13,25,26.90
2023,05,15,13,26,26.90
2023,05,15,13,27,26.90
2023,05,15,13,28,26.80
2023,05,15,13,29,26.80
2023,05,15,13,30,26.90
2023,05,15,13,31,26.90
2023,05,15,13,32,26.80
2023,05,15,13,33,26.80
2023,05,15,13,34,26.80
2023,05,15,13,35,26.80
2023,05,15,13,36,26.80
2023,05,15,13,37,26.70
2023,05,15,13,38,26.60
2023,05,15,13,39,26.70
2023,05,15,13,40,26.70
2023,05,15,13,41,26.70
2023,05,15,13,42,26.80
2023,05,15,13,43,26.90
2023,05,15,13,44,26.90
2023,05,15,13,45,27.00
2023,05,15,13,46,27.10
2023,05,15,13,47,27.10
2023,05,15,13,48,27.10
2023,05,15,13,49,27.10
2023,05,15,13,50,27.10
2023,05,15,13,51,27.20
2023,05,15,13,52,27.20
2023,05,15,13,53,27.10
2023,05,15,13,54,26.90
2023,05,15,13,55,26.70
2023,05,15,13,56,26.60
2023,05,15,13,57,26.70
2023,05,15,13,58,26.70
2023,05,15,13,59,26.70
2023,05,15,14,00,26.80
2023,05,15,14,01,27.00
2023,05,15,14,02,27.10
2023,05,15,14,03,27.20
2023,05,15,14,04,27.30
2023,05,15,14,05,27.30
2023,05,15,14,06,27.10
2023,05,15,14,07,27.00
2023,05,15,14,08,26.80
2023,05,15,14,09,26.70
2023,05,15,14,10,26.60
2023,05,15,14,11,26.70
2023,05,15,14,12,26.80
2023,05,15,14,13,26.90
2023,05,15,14,14,26.90
2023,05,15,14,15,27.00
2023,05,15,14,16,27.10
2023,05,15,14,17,27.20
2023,05,15,14,18,27.20
2023,05,15,14,19,27.10
2023,05,15,14,20,27.00
2023,05,15,14,21,26.90
2023,05,15,14,22,26.90
2023,05,15,14,23,26.80
2023,05,15,14,24,26.80
2023,05,15,14,25,26.70
2023,05,15,14,26,26.60
2023,05,15,14,27,26.60
2023,05,15,14,28,26.60
2023,05,15,14,29,26.70
2023,05,15,14,30,26.70
2023,05,15,14,31,26.70
2023,05,15,14,32,26.60
2023,05,15,14,33,26.60
2023,05,15,14,34,26.60
2023,05,15,14,35,26.60
2023,05,15,14,36,26.60
2023,05,15,14,37,26.60
2023,05,15,14,38,26.60
2023,05,15,14,39,26.60
2023,05,15,14,40,26.60
2023,05,15,14,41,26.60
2023,05,15,14,42,26.60
2023,05,15,14,43,26.60
2023,05,15,14,44,26.70
2023,05,15,14,45,26.70
2023,05,15,14,46,26.80
2023,05,15,14,47,26.90
2023,05,15,14,48,26.90
2023,05,15,14,49,26.90
2023,05,15,14,50,26.90
2023,05,15,14,51,26.90
2023,05,15,14,52,26.90
2023,05,15,14,53,26.80
2023,05,15,14,54,26.80
2023,05,15,14,55,26.70
2023,05,15,14,56,26.60
2023,05,15,14,57,26.60
2023,05,15,14,58,26.60
2023,05,15,14,59,26.60
2023,05,15,15,00,26.60
2023,05,15,15,01,26.60
2023,05,15,15,02,26.80
2023,05,15,15,03,26.80
2023,05,15,15,04,26.90
2023,05,15,15,05,26.90
2023,05,15,15,06,27.00
2023,05,15,15,07,27.10
2023,05,15,15,08,27.30
2023,05,15,15,09,27.30
2023,05,15,15,10,27.40
2023,05,15,15,11,27.60
2023,05,15,15,12,27.70
2023,05,15,15,13,27.80
2023,05,15,15,14,27.90
2023,05,15,15,15,27.90
2023,05,15,15,16,28.00
2023,05,15,15,17,28.00
2023,05,15,15,18,28.00
2023,05,15,15,19,28.10
2023,05,15,15,20,28.20
2023,05,15,15,21,28.20
2023,05,15,15,22,28.00
2023,05,15,15,23,27.90
2023,05,15,15,24,27.80
2023,05,15,15,25,27.80
2023,05,15,15,26,27.80
2023,05,15,15,27,27.80
2023,05,15,15,28,27.90
2023,05,15,15,29,28.00
2023,05,15,15,30,28.00
2023,05,15,15,31,27.90
2023,05,15,15,32,27.90
2023,05,15,15,33,27.90
2023,05,15,15,34,28.00
2023,05,15,15,35,28.10
2023,05,15,15,36,28.20
2023,05,15,15,37,28.30
2023,05,15,15,38,28.30
2023,05,15,15,39,28.40
2023,05,15,15,40,28.50
2023,05,15,15,41,28.60
2023,05,15,15,42,28.60
2023,05,15,15,43,28.60
2023,05,15,15,44,28.70
2023,05,15,15,45,28.60
2023,05,15,15,46,28.60
2023,05,15,15,47,28.60
2023,05,15,15,48,28.70
2023,05,15,15,49,28.80
2023,05,15,15,50,28.90
2023,05,15,15,51,28.90
2023,05,15,15,52,29.10
2023,05,15,15,53,29.10
2023,05,15,15,54,29.20
2023,05,15,15,55,29.30
2023,05,15,15,56,29.20
2023,05,15,15,57,29.10
2023,05,15,15,58,28.90
2023,05,15,15,59,28.90
2023,05,15,16,00,28.80
2023,05,15,16,01,28.70
2023,05,15,16,02,28.60
2023,05,15,16,03,28.50
2023,05,15,16,04,28.40
2023,05,15,16,05,28.30
2023,05,15,16,06,28.40
2023,05,15,16,07,28.60
2023,05,15,16,08,28.60
2023,05,15,16,09,28.70
2023,05,15,16,10,28.70
2023,05,15,16,11,28.60
2023,05,15,16,12,28.60
2023,05,15,16,13,28.60
2023,05,15,16,14,28.60
2023,05,15,16,15,28.60
2023,05,15,16,16,28.60
2023,05,15,16,17,28.60
2023,05,15,16,18,28.60
2023,05,15,16,19,28.70
2023,05,15,16,20,28.80
2023,05,15,16,21,28.90
2023,05,15,16,22,28.90
2023,05,15,16,23,28.90
2023,05,15,16,24,28.90
2023,05,15,16,25,28.90
2023,05,15,16,26,28.90
2023,05,15,16,27,29.00
2023,05,15,16,28,29.10
2023,05,15,16,29,29.10
2023,05,15,16,30,29.10
2023,05,15,16,31,29.10
2023,05,15,16,32,29.10
2023,05,15,16,33,29.00
2023,05,15,16,34,29.00
2023,05,15,16,35,29.00
2023,05,15,16,36,29.10
2023,05,15,16,37,29.20
2023,05,15,16,38,29.20
2023,05,15,16,39,29.30
2023,05,15,16,40,29.50
2023,05,15,16,41,29.70
2023,05,15,16,42,29.80
2023,05,15,16,43,29.80
2023,05,15,16,44,29.80
2023,05,15,16,45,29.80
2023,05,15,16,46,29.70
2023,05,15,16,47,29.60
2023,05,15,16,48,29.60
2023,05,15,16,49,29.60
2023,05,15,16,50,29.70
2023,05,15,16,51,29.70
2023,05,15,16,52,29.70
2023,05,15,16,53,29.70
2023,05,15,16,54,29.70
2023,05,15,16,55,29.70
2023,05,15,16,56,29.60
2023,05,15,16,57,29.60
2023,05,15,16,58,29.70
2023,05,15,16,59,29.80
2023,05,15,17,00,29.80
2023,05,15,17,01,29.90
2023,05,15,17,02,29.90
2023,05,15,17,03,30.00
2023,05,15,17,04,30.10
2023,05,15,17,05,30.10
2023,05,15,17,06,30.10
2023,05,15,17,07,30.30
2023,05,15,17,08,30.40
2023,05,15,17,09,30.60
2023,05,15,17,10,30.70
2023,05,15,17,11,30.80
2023,05,15,17,12,30.90
2023,05,15,17,13,30.90
2023,05,15,17,14,31.00
2023,05,15,17,15,31.10
2023,05,15,17,16,31.00
2023,05,15,17,17,30.80
2023,05,15,17,18,30.50
2023,05,15,17,19,30.20